[[{"header":{"parameterUnit":"m.s-1","parameterCategory":1,"la1":30.2991,"la2":30.254,"lo1":-89.0895,"lo2":-89.0444,"dy":0.0017,"dx":0.0017,"nx":28,"ny":28,"refTime":"2024-07-10T09:00:00:Z","depth":0,"parameterNumber":2,"parameterNumberName":"U-component_of_WINDS"},"data":[0,0,0,0,0,0,0,0,0,0,0,0,0,0,0,0,0,0,0,0,0,0,0,0,0,0,0,0,0,0,0,0,0,0,0,0,0,0,0,0,0,0,0,0,0,0,0,0,0,0,0,0,0,0,0,0,0,0,-0.5165,-0.5164,0,-0.5069,-0.5068,-0.5067,-0.5035,-0.5035,-0.5035,-0.5036,-0.4935,-0.4932,-0.4929,0,0,0,0,0,0,0,0,0,0,0,0,0,-0.5317,-0.5315,-0.5165,-0.5164,-0.5163,-0.5069,-0.5068,-0.5066,-0.5034,-0.5035,-0.5035,-0.5036,-0.4936,-0.4932,-0.4928,0,0,0,0,0,0,0,0,0,0,0,0,0,-0.5239,-0.5314,-0.5165,-0.5136,-0.5132,-0.5069,-0.5068,-0.5066,-0.5034,-0.5035,-0.5036,-0.5036,-0.4937,-0.4933,-0.4928,-0.4887,0,0,-0.4914,-0.4912,0,0,0,0,0,0,0,0,-0.5244,-0.5234,-0.5141,-0.5137,-0.5133,-0.5064,-0.5084,-0.5006,-0.5034,-0.5071,-0.5036,-0.5036,-0.4977,-0.4969,-0.495,-0.4883,-0.4878,-0.4914,-0.4911,-0.4909,-0.4907,0,0,0,0,0,0,0,-0.5249,-0.5238,-0.5127,-0.514,-0.5135,-0.5126,-0.5115,-0.5069,-0.5022,-0.5068,-0.5066,-0.5055,-0.4975,-0.4954,-0.4947,-0.4877,-0.4914,-0.491,-0.4907,-0.4905,-0.4769,-0.4768,0,0,0,0,0,0,-0.526,-0.5242,-0.513,-0.5124,-0.5191,-0.5123,-0.5111,-0.5086,-0.5022,-0.5013,-0.5054,-0.5054,-0.4962,-0.4953,-0.4944,-0.489,-0.4909,-0.4904,-0.4902,-0.477,-0.4769,-0.4768,0,0,0,0,0,0,-0.5263,-0.525,-0.5134,-0.5182,-0.5167,-0.5119,-0.5091,-0.5084,-0.5063,-0.5012,-0.5003,-0.5042,-0.4962,-0.495,-0.4901,-0.4886,-0.4902,-0.4898,-0.4771,-0.477,-0.4768,-0.4784,0,0,0,0,0,0,-0.5268,-0.5252,-0.5237,-0.5182,-0.5165,-0.5094,-0.5091,-0.5081,-0.5055,-0.5053,-0.4998,-0.4989,-0.4962,-0.4908,-0.4897,-0.488,-0.4895,-0.4772,-0.477,-0.4769,-0.4785,-0.4783,-0.4782,0,0,0,0,0,-0.5274,-0.5245,-0.5236,-0.5223,-0.5145,-0.5093,-0.5083,-0.5052,-0.5054,-0.5038,-0.5005,-0.4991,-0.489,-0.4904,-0.489,-0.4872,-0.4773,-0.4771,-0.4769,-0.4785,-0.4784,-0.4782,0,0,0,0,0,0,-0.5298,-0.5237,-0.5227,-0.518,-0.5142,-0.5088,-0.5067,-0.5052,-0.5012,-0.5012,-0.4975,-0.4963,-0.4916,-0.4889,-0.4906,-0.4828,-0.4831,-0.4826,-0.4847,-0.4846,-0.4845,-0.4851,-0.4891,0,0,0,0,0,-0.5298,-0.5262,-0.5211,-0.5174,-0.5156,-0.5115,-0.5091,-0.5071,-0.503,-0.5013,-0.4977,-0.4937,-0.4896,-0.4869,-0.4829,-0.4781,-0.4767,-0.4762,-0.4761,-0.476,-0.4756,-0.4726,-0.4723,-0.4762,-0.4762,-0.4762,0,0,-0.5297,-0.526,-0.5239,-0.5178,-0.5146,-0.5109,-0.5101,-0.5062,-0.5034,-0.5007,-0.4958,-0.493,-0.4883,-0.4834,-0.481,-0.481,-0.4742,-0.4758,-0.4758,-0.4754,-0.4724,-0.472,-0.4717,-0.476,-0.4761,-0.4761,0,0,-0.5276,-0.5246,-0.5211,-0.5179,-0.5131,-0.5104,-0.5096,-0.5044,-0.5024,-0.4975,-0.4954,-0.4919,-0.485,-0.4816,-0.479,-0.4756,-0.4741,-0.4744,-0.4738,-0.4709,-0.4706,-0.4703,-0.4689,-0.4685,-0.474,-0.474,-0.474,0,-0.5281,-0.5225,-0.5195,-0.5156,-0.5129,-0.5104,-0.5068,-0.5038,-0.498,-0.4961,-0.4962,-0.4873,-0.484,-0.4781,-0.4773,-0.4753,-0.4741,-0.4749,-0.4709,-0.4706,-0.4703,-0.4689,-0.4684,-0.4741,-0.4741,-0.4741,-0.4741,0,-0.5232,-0.5194,-0.5171,-0.5115,-0.5086,-0.5049,-0.5011,-0.4985,-0.4967,-0.4939,-0.4888,-0.4848,-0.4798,-0.4783,-0.4765,-0.4721,-0.4722,-0.4717,-0.4718,-0.47,-0.4686,-0.4681,-0.4742,-0.4741,-0.4741,-0.4741,0,0,-0.5224,-0.5151,-0.5143,-0.5117,-0.5062,-0.5031,-0.4992,-0.4944,-0.4921,-0.4882,-0.4847,-0.4788,-0.4782,-0.4753,-0.4731,-0.4707,-0.468,-0.4704,-0.4702,-0.4699,-0.4626,-0.463,-0.4624,-0.467,-0.4669,-0.4668,-0.463,0,-0.5194,-0.5125,-0.5096,-0.5039,-0.5001,-0.4977,-0.4943,-0.4905,-0.4878,-0.4841,-0.4811,-0.4769,-0.4766,-0.4747,-0.4722,-0.4688,-0.4664,-0.4691,-0.4635,-0.4634,-0.4646,-0.4617,-0.462,-0.4586,-0.4624,-0.4623,-0.4623,0,-0.5151,-0.5111,-0.5051,-0.4999,-0.4982,-0.4952,-0.4905,-0.4871,-0.4827,-0.4808,-0.4775,-0.4754,-0.4711,-0.4717,-0.4655,-0.4674,-0.465,-0.4629,-0.4627,-0.4619,-0.4626,-0.4606,-0.4575,-0.4569,-0.4614,-0.4615,-0.4616,0,-0.5148,-0.508,-0.5034,-0.5013,-0.4952,-0.4931,-0.4904,-0.4861,-0.4833,-0.4792,-0.4773,-0.4727,-0.4701,-0.4665,-0.4632,-0.4639,-0.4573,-0.4576,-0.4555,-0.4556,-0.4541,-0.4542,-0.4503,-0.4528,-0.4529,-0.4529,-0.4529,0,-0.5118,-0.5081,-0.5032,-0.5004,-0.4961,-0.4928,-0.4887,-0.4858,-0.482,-0.4784,-0.4761,-0.4728,-0.4687,-0.4648,-0.4622,-0.4574,-0.4563,-0.4546,-0.4539,-0.4547,-0.4549,-0.4529,-0.4529,-0.4527,-0.4528,-0.4528,-0.4528,0,-0.5107,-0.5073,-0.5021,-0.4968,-0.4954,-0.4924,-0.4878,-0.4849,-0.4821,-0.4776,-0.4764,-0.4719,-0.4672,-0.4636,-0.4576,-0.4558,-0.4506,-0.45,-0.4521,-0.4517,-0.4497,-0.4499,-0.4442,-0.4432,-0.4467,-0.4467,-0.4467,0,-0.5089,-0.506,-0.5004,-0.4978,-0.4952,-0.4913,-0.4884,-0.485,-0.4821,-0.4768,-0.4744,-0.4696,-0.4656,-0.4582,-0.4543,-0.4496,-0.4487,-0.4471,-0.448,-0.4488,-0.4484,-0.4485,-0.4481,-0.4469,-0.4469,-0.4469,-0.4468,0,-0.5059,-0.5044,-0.5004,-0.4958,-0.4925,-0.4887,-0.4849,-0.4829,-0.4788,-0.4756,-0.4708,-0.4677,-0.4615,-0.4566,-0.4515,-0.4486,-0.4469,-0.4466,-0.4458,-0.4465,-0.4477,-0.4468,-0.4516,-0.4467,-0.4467,-0.4467,-0.4467,-0.4467,-0.5043,-0.5015,-0.4971,-0.4927,-0.4895,-0.4859,-0.4828,-0.4796,-0.4756,-0.4703,-0.4685,-0.4635,-0.459,-0.452,-0.4491,-0.445,-0.4449,-0.4439,-0.4435,-0.4433,-0.4432,-0.4486,-0.4441,-0.4441,-0.4441,-0.4441,-0.4441,0,-0.501,-0.498,-0.4941,-0.4887,-0.4852,-0.4841,-0.4797,-0.4769,-0.4725,-0.4685,-0.4646,-0.459,-0.4542,-0.45,-0.445,-0.4426,-0.4417,-0.4414,-0.4414,-0.4407,-0.4437,-0.4448,-0.4422,-0.4422,-0.4422,-0.4422,-0.4422,-0.4422,-0.4989,-0.4941,-0.492,-0.4855,-0.4826,-0.4777,-0.4753,-0.4719,-0.4686,-0.4625,-0.4586,-0.4559,-0.4517,-0.4464,-0.442,-0.4408,-0.439,-0.4388,-0.4375,-0.4403,-0.4405,-0.4408,-0.4417,-0.4385,-0.4385,-0.4348,-0.4348,-0.4347]},{"header":{"parameterUnit":"m.s-1","parameterCategory":1,"la1":30.2991,"la2":30.254,"lo1":-89.0895,"lo2":-89.0444,"dy":0.0017,"dx":0.0017,"nx":28,"ny":28,"refTime":"2024-07-10T09:00:00:Z","depth":0,"parameterNumber":3,"parameterNumberName":"V-component_of_WINDS"},"data":[0,0,0,0,0,0,0,0,0,0,0,0,0,0,0,0,0,0,0,0,0,0,0,0,0,0,0,0,0,0,0,0,0,0,0,0,0,0,0,0,0,0,0,0,0,0,0,0,0,0,0,0,0,0,0,0,0,0,1.3376,1.3376,0,1.3368,1.3368,1.3368,1.3366,1.3366,1.3366,1.3366,1.3356,1.3355,1.3355,0,0,0,0,0,0,0,0,0,0,0,0,0,1.3385,1.3385,1.3376,1.3376,1.3376,1.3368,1.3368,1.3368,1.3366,1.3366,1.3366,1.3366,1.3356,1.3355,1.3355,0,0,0,0,0,0,0,0,0,0,0,0,0,1.3379,1.3385,1.3376,1.3374,1.3374,1.3368,1.3368,1.3368,1.3366,1.3366,1.3366,1.3366,1.3356,1.3355,1.3355,1.335,0,0,1.3353,1.3353,0,0,0,0,0,0,0,0,1.3379,1.3379,1.3374,1.3374,1.3374,1.3368,1.3367,1.3362,1.3366,1.3369,1.3366,1.3366,1.3359,1.3359,1.3357,1.3349,1.3349,1.3353,1.3353,1.3353,1.3353,0,0,0,0,0,0,0,1.338,1.3379,1.3373,1.3374,1.3374,1.3372,1.3371,1.3366,1.3364,1.3368,1.3368,1.3368,1.3359,1.3357,1.3357,1.3349,1.3353,1.3353,1.3353,1.3352,1.3332,1.3332,0,0,0,0,0,0,1.3381,1.3379,1.3373,1.3372,1.3377,1.3372,1.3371,1.337,1.3364,1.3363,1.3367,1.3367,1.3358,1.3357,1.3356,1.3347,1.3353,1.3352,1.3352,1.3332,1.3332,1.3332,0,0,0,0,0,0,1.3381,1.3381,1.3373,1.3376,1.3375,1.3371,1.337,1.3369,1.3368,1.3363,1.3362,1.3366,1.3358,1.3357,1.3351,1.3347,1.3352,1.3352,1.3333,1.3332,1.3332,1.3331,0,0,0,0,0,0,1.3382,1.3381,1.338,1.3376,1.3375,1.3369,1.337,1.3369,1.3367,1.3367,1.3362,1.3361,1.3358,1.3351,1.335,1.3346,1.3351,1.3333,1.3332,1.3332,1.3331,1.3331,1.333,0,0,0,0,0,1.3382,1.3381,1.338,1.3379,1.3374,1.3369,1.3368,1.3366,1.3367,1.3365,1.3361,1.3361,1.3348,1.3351,1.3349,1.3345,1.3333,1.3333,1.3332,1.3332,1.3331,1.333,0,0,0,0,0,0,1.3385,1.338,1.338,1.3377,1.3373,1.3369,1.3367,1.3366,1.3362,1.3362,1.3358,1.3357,1.335,1.3347,1.3351,1.3338,1.334,1.3339,1.334,1.334,1.3339,1.3339,1.3351,0,0,0,0,0,1.3385,1.3383,1.3378,1.3376,1.3374,1.3371,1.3369,1.3367,1.3363,1.3361,1.3357,1.3352,1.3346,1.3343,1.3338,1.3331,1.3328,1.3327,1.3326,1.3326,1.3325,1.3317,1.3316,1.333,1.333,1.333,0,0,1.3386,1.3383,1.3382,1.3377,1.3374,1.3369,1.337,1.3366,1.3362,1.336,1.3354,1.335,1.3344,1.3336,1.3333,1.3334,1.332,1.3325,1.3325,1.3324,1.3317,1.3315,1.3314,1.333,1.333,1.333,0,0,1.3384,1.3383,1.338,1.3376,1.3371,1.3368,1.3367,1.3362,1.336,1.3353,1.3351,1.3345,1.3336,1.3331,1.3327,1.332,1.3318,1.3318,1.3315,1.3307,1.3306,1.3305,1.33,1.3298,1.3317,1.3317,1.3317,0,1.3386,1.338,1.3378,1.3374,1.337,1.3368,1.3363,1.3359,1.3353,1.3349,1.3351,1.3337,1.3333,1.3323,1.332,1.3318,1.3315,1.3319,1.3307,1.3306,1.3304,1.3299,1.3298,1.3317,1.3317,1.3317,1.3317,0,1.3381,1.3377,1.3374,1.3367,1.3364,1.3359,1.3354,1.335,1.3348,1.3344,1.3335,1.3329,1.3321,1.3319,1.3317,1.3307,1.3307,1.3308,1.3309,1.3303,1.3298,1.3296,1.3317,1.3317,1.3317,1.3317,0,0,1.3383,1.3373,1.3372,1.3367,1.336,1.3356,1.3349,1.3342,1.3337,1.3331,1.3324,1.3315,1.3314,1.331,1.3307,1.3301,1.3291,1.3301,1.3301,1.3298,1.3276,1.3274,1.3273,1.329,1.329,1.3289,1.3275,0,1.3379,1.3369,1.3365,1.3356,1.335,1.3346,1.334,1.3334,1.3329,1.3322,1.3316,1.3309,1.331,1.3306,1.33,1.3294,1.3286,1.3295,1.3281,1.328,1.3281,1.327,1.327,1.3257,1.3274,1.3273,1.3273,0,1.3375,1.3368,1.3358,1.3348,1.3346,1.3341,1.3331,1.3325,1.3317,1.3313,1.3306,1.3303,1.3293,1.3296,1.3281,1.3287,1.328,1.3276,1.3275,1.3273,1.3276,1.3266,1.3254,1.3251,1.3271,1.3271,1.3271,0,1.3375,1.3364,1.3355,1.3352,1.3341,1.3336,1.3331,1.3323,1.3317,1.3308,1.3304,1.3294,1.3288,1.3279,1.3272,1.3275,1.3257,1.3259,1.3251,1.3251,1.3248,1.3248,1.3232,1.3246,1.3246,1.3246,1.3246,0,1.337,1.3364,1.3354,1.3349,1.3341,1.3335,1.3326,1.332,1.3312,1.3304,1.33,1.3292,1.3283,1.3274,1.3268,1.3254,1.3252,1.3248,1.3246,1.3247,1.3247,1.3242,1.3242,1.3245,1.3246,1.3246,1.3246,0,1.3369,1.3363,1.3353,1.3342,1.3339,1.3333,1.3323,1.3316,1.331,1.33,1.3297,1.3287,1.3275,1.3267,1.3252,1.3247,1.3232,1.3231,1.3235,1.3234,1.3226,1.3226,1.3205,1.3201,1.3219,1.3219,1.3219,0,1.3367,1.3361,1.3349,1.3343,1.3338,1.3329,1.3323,1.3316,1.3309,1.3296,1.329,1.3278,1.3267,1.3248,1.3238,1.3225,1.3223,1.3216,1.3221,1.3221,1.322,1.322,1.3218,1.3216,1.3215,1.3215,1.3215,0,1.3362,1.3358,1.335,1.3339,1.3331,1.3322,1.3313,1.3308,1.3299,1.3291,1.3278,1.327,1.3253,1.3239,1.3225,1.3218,1.3214,1.3214,1.3211,1.3212,1.3213,1.3209,1.3231,1.3214,1.3214,1.3214,1.3214,1.3215,1.3359,1.3352,1.3342,1.3331,1.3323,1.3314,1.3306,1.3298,1.3288,1.3274,1.327,1.3255,1.3243,1.3223,1.3215,1.3202,1.3203,1.3199,1.3198,1.3197,1.3195,1.3216,1.32,1.32,1.32,1.32,1.32,0,1.3352,1.3344,1.3334,1.3321,1.3312,1.3309,1.3298,1.329,1.3277,1.3266,1.3255,1.3239,1.3225,1.3213,1.3197,1.3189,1.3187,1.3185,1.3185,1.3183,1.3197,1.32,1.3187,1.3187,1.3187,1.3187,1.3187,1.3187,1.3347,1.3335,1.3329,1.3312,1.3304,1.329,1.3284,1.3274,1.3264,1.3246,1.3234,1.3227,1.3214,1.3197,1.3183,1.3179,1.3173,1.3171,1.3167,1.3181,1.3182,1.3183,1.3186,1.3171,1.3171,1.3154,1.3153,1.3153]}]]